Location: Waltman Observatory
(32.5145°N, 90.4450°W)
Time: 19:57:30
(UTC-06:00)

Amateur Radio Satellites - All Passes

Search period start: 20 December 2014 19:27
Search period end: 21 December 2014 19:27
Location: Waltman Observatory, 32.5145°N, 90.4450°W

Satellite Date Start Highest point End Downlink Frequencies (MHz)
Time Altitude Azimuth
SEEDS 20 Dec 19:29:21 19:32:12 18° 69° (ENE) 19:35:04 437.485
BRITE-PL 20 Dec 19:30:55 19:34:16 23° 72° (ENE) 19:37:33 437.365/2234.400
CUTE 1.7 + AOD 2 20 Dec 19:32:18 19:35:38 23° 71° (ENE) 19:39:00 437.475
CUBESAT XI-V 20 Dec 19:40:43 19:44:18 23° 290° (WNW) 19:47:52 437.345
SO-50 20 Dec 19:51:02 19:54:45 26° 111° (ESE) 19:58:33 436.795
STRAND 1 20 Dec 19:51:28 19:55:38 26° 291° (WNW) 19:59:48 437.568
GOMX 1 20 Dec 19:56:46 20:00:29 32° 73° (ENE) 20:04:11 467.674
HO-68 20 Dec 20:06:06 20:13:17 80° 73° (ENE) 20:20:28 435.675
Oscar 11 20 Dec 20:09:13 20:12:14 19° 69° (ENE) 20:15:17 145.826/435.025
DANDE 20 Dec 20:14:16 20:22:06 56° 80° (E) 20:30:36 436.750
UKube-1 20 Dec 20:17:56 20:20:52 18° 69° (ENE) 20:23:49 .
DOVE 4 20 Dec 20:21:28 20:25:25 46° 75° (ENE) 20:29:25 437.250
AAUSAT CUBESAT 2 20 Dec 20:22:25 20:26:32 58° 76° (ENE) 20:30:41 437.432
CUBEBUG 2 20 Dec 20:29:46 20:32:42 19° 69° (ENE) 20:35:41 437.445
CANX-2 20 Dec 20:36:22 20:40:29 50° 261° (W) 20:44:39 2200.000
ZACube-1 20 Dec 20:40:05 20:42:53 18° 69° (ENE) 20:45:43 437.345
VELOX 1 20 Dec 20:44:01 20:45:14 11° 66° (ENE) 20:46:27 145.980
CINEMA 3 20 Dec 20:45:59 20:49:59 52° 75° (ENE) 20:54:05 145.822/145.860
RS-15 20 Dec 20:53:37 21:04:59 71° 60° (ENE) 21:16:49 29.354- 29.394
ISS 20 Dec 20:57:57 21:01:12 71° 226° (SW) 21:04:26 145.825
COMPASS 1 20 Dec 20:58:00 21:01:59 42° 261° (W) 21:06:01 437.405
SEEDS 20 Dec 21:04:04 21:07:46 29° 263° (W) 21:11:30 437.485
CUSAT 1 20 Dec 21:05:20 21:13:12 60° 267° (W) 21:21:29 437.405
FUNcube-1 20 Dec 21:05:39 21:09:26 35° 73° (ENE) 21:13:18 145.935
UWE-3 20 Dec 21:06:31 21:10:29 45° 74° (ENE) 21:14:31 435.000/436.395/437.385
CUTE 1.7 + AOD 2 20 Dec 21:08:03 21:11:25 23° 264° (W) 21:14:50 437.475
BRITE-PL 20 Dec 21:09:37 21:12:43 20° 264° (W) 21:15:47 437.365/2234.400
DELFI C3 20 Dec 21:13:34 21:17:40 84° 258° (WSW) 21:21:49 145.870
50 SAT 20 Dec 21:16:16 21:19:14 20° 70° (ENE) 21:22:14 437.505
DX 1 20 Dec 21:21:26 21:25:46 73° 258° (WSW) 21:30:07 434.975-435.025
AISAT 20 Dec 21:24:11 21:28:11 34° 72° (ENE) 21:32:10 437.250
BEESAT 3 20 Dec 21:28:02 21:30:50 17° 52° (NE) 21:33:36 437.485
SO-50 20 Dec 21:31:22 21:35:10 26° 306° (NW) 21:39:04 436.795
CUBEBUG 1 20 Dec 21:31:37 21:33:51 14° 68° (ENE) 21:36:05 437.445
GOMX 1 20 Dec 21:36:30 21:38:42 14° 266° (W) 21:40:54 467.674
HUMSAT D 20 Dec 21:38:21 21:42:20 51° 75° (ENE) 21:46:23 437.325/437.525
ANTELSAT 20 Dec 21:40:58 21:44:05 17° 94° (E) 21:47:11 437.575/2403.000
Oscar 11 20 Dec 21:44:24 21:48:10 29° 263° (W) 21:51:57 145.826/435.025
QB50P1 20 Dec 21:48:30 21:49:27 11° 93° (E) 21:50:23 145.935-145.965
UKube-1 20 Dec 21:52:57 21:56:46 30° 262° (W) 22:00:36 .
HO-68 20 Dec 21:57:55 22:01:32 14° 267° (W) 22:05:11 435.675
DANDE 20 Dec 21:58:32 22:05:13 29° 272° (W) 22:12:19 436.750
CUBEBUG 2 20 Dec 22:05:42 22:09:12 26° 264° (W) 22:12:46 437.445
BEESAT 2 20 Dec 22:07:10 22:11:07 40° 58° (ENE) 22:15:00 435.950
POPSAT HIP 1 20 Dec 22:14:55 22:18:23 24° 97° (E) 22:21:51 437.405
TIGRISAT 20 Dec 22:15:15 22:19:43 42° 99° (E) 22:24:10 435.000
ZACube-1 20 Dec 22:15:25 22:19:00 28° 263° (W) 22:22:40 437.345
VELOX 1 20 Dec 22:16:58 22:21:18 54° 259° (W) 22:25:38 145.980
ESTCUBE 1 20 Dec 22:19:57 22:24:23 57° 75° (ENE) 22:28:51 437.505/2401.250
TISAT 1 20 Dec 22:34:31 22:37:09 16° 69° (ENE) 22:39:47 437.305
SPROUT 20 Dec 22:38:19 22:41:04 17° 69° (ENE) 22:43:49 437.525
BUGSAT 1 20 Dec 22:40:35 22:44:22 38° 99° (E) 22:48:11 437.445
DUCHIFAT 1 20 Dec 22:42:15 22:46:24 53° 100° (E) 22:50:34 145.980
FUNcube-1 20 Dec 22:43:47 22:45:54 14° 267° (W) 22:48:02 145.935
UNISAT 6 20 Dec 22:44:18 22:49:03 87° 283° (WNW) 22:53:46 437.425
UWE-3 20 Dec 22:46:23 22:47:15 11° 268° (W) 22:48:08 435.000/436.395/437.385
50 SAT 20 Dec 22:51:09 22:54:18 22° 264° (W) 22:57:30 437.505
YUBILEINY 20 Dec 22:51:51 22:59:32 36° 87° (E) 23:07:10 435.215
QB50P2 20 Dec 22:55:52 23:00:09 82° 102° (ESE) 23:04:26 145.880/145.840
AISAT 20 Dec 23:02:06 23:04:51 16° 265° (W) 23:07:36 437.250
PCSat 20 Dec 23:02:34 23:07:57 63° 63° (ENE) 23:13:17 145.827
POLYITAN 1 20 Dec 23:04:46 23:09:04 77° 283° (WNW) 23:13:22 437.675
BEESAT 3 20 Dec 23:05:19 23:09:06 34° 247° (WSW) 23:12:49 437.485
CUBEBUG 1 20 Dec 23:05:42 23:09:50 41° 261° (W) 23:13:58 437.445
NANOSAT C BR1 20 Dec 23:06:50 23:11:05 74° 284° (WNW) 23:15:21 145.865
RS-15 20 Dec 23:07:30 23:16:25 27° 256° (WSW) 23:25:40 29.354- 29.394
AIST 2 20 Dec 23:12:56 23:17:13 81° 243° (WSW) 23:21:25 435.215
ANTELSAT 20 Dec 23:16:35 23:20:56 37° 287° (WNW) 23:25:16 437.575/2403.000
QB50P1 20 Dec 23:21:25 23:25:31 47° 286° (WNW) 23:29:37 145.935-145.965
SWISSCUBE 20 Dec 23:28:07 23:29:22 11° 65° (ENE) 23:30:37 437.505
BEESAT 2 20 Dec 23:46:53 23:48:57 14° 252° (WSW) 23:51:00 435.950
BEESAT 20 Dec 23:50:49 23:54:07 19° 68° (ENE) 23:57:24 436.000
POPSAT HIP 1 20 Dec 23:50:50 23:54:07 22° 290° (WNW) 23:57:25 437.405
TIGRISAT 20 Dec 23:53:12 23:56:04 16° 292° (WNW) 23:58:56 435.000
TISAT 1 21 Dec 00:08:56 00:12:41 31° 262° (W) 00:16:27 437.305
SPROUT 21 Dec 00:13:03 00:16:52 31° 262° (W) 00:20:41 437.525
BUGSAT 1 21 Dec 00:17:39 00:19:30 13° 292° (WNW) 00:21:22 437.445
DUCHIFAT 1 21 Dec 00:21:00 00:21:46 10° 294° (WNW) 00:22:31 145.980
O/OREOS (USA 219) 21 Dec 00:23:21 00:27:48 84° 289° (WNW) 00:32:17 437.305
AUBIESAT-1 21 Dec 00:33:43 00:37:54 31° 67° (ENE) 00:42:11 437.475
Oscar 19 21 Dec 00:45:27 00:49:46 26° 96° (E) 00:54:03 437.125/150
YUBILEINY 21 Dec 00:47:59 00:56:04 41° 283° (WNW) 01:04:10 435.215
PCSat 21 Dec 00:48:20 00:50:44 13° 257° (WSW) 00:53:08 145.827
KKS-1 21 Dec 00:50:56 00:53:19 14° 67° (ENE) 00:55:41 437.445
M-CUBED/EXP-1 PRIME 21 Dec 00:58:55 01:03:38 65° 71° (ENE) 01:08:31 437.505
SWISSCUBE 21 Dec 01:01:52 01:06:37 65° 259° (WSW) 01:11:24 437.505
ITUPSAT 1 21 Dec 01:02:25 01:07:12 71° 258° (WSW) 01:12:01 437.325
ITAMSAT 1 21 Dec 01:03:45 01:05:50 12° 93° (E) 01:07:55 435.822/435.867
BEESAT 21 Dec 01:27:14 01:31:38 36° 261° (W) 01:36:03 436.000
VERMONT LUNAR 21 Dec 02:06:15 02:09:45 66° 151° (SSE) 02:13:15 437.305
AUBIESAT-1 21 Dec 02:08:55 02:12:45 24° 260° (W) 02:16:42 437.475
HORYU 2 21 Dec 02:17:17 02:19:42 14° 94° (E) 02:22:06 437.375
STARS 21 Dec 02:20:40 02:25:01 74° 258° (WSW) 02:29:24 437.465
PHONESAT 2.4 21 Dec 02:21:46 02:25:18 54° 149° (SSE) 02:28:51 2401.200-2431.200
Oscar 19 21 Dec 02:24:32 02:29:00 30° 290° (WNW) 02:33:27 437.125/150
KKS-1 21 Dec 02:25:24 02:29:33 41° 261° (W) 02:33:45 437.445
M-CUBED/EXP-1 PRIME 21 Dec 02:37:34 02:38:57 11° 264° (W) 02:40:21 437.505
Gurwin Techsat 1B 21 Dec 02:37:36 02:42:55 76° 102° (ESE) 02:48:12 435.225
ITAMSAT 1 21 Dec 02:40:32 02:45:37 60° 286° (WNW) 02:50:41 435.822/435.867
AO-7 21 Dec 02:55:50 03:01:38 20° 95° (E) 03:07:23 29.400- 29.500
AIST 1 21 Dec 03:15:44 03:19:48 43° 81° (E) 03:23:51
MOZHAYETS 4 21 Dec 03:37:40 03:41:40 29° 72° (ENE) 03:45:41
VERMONT LUNAR 21 Dec 03:45:05 03:48:14 30° 345° (NNW) 03:51:24 437.305
HORYU 2 21 Dec 03:52:15 03:56:29 41° 287° (WNW) 04:00:42 437.375
PHONESAT 2.4 21 Dec 04:00:46 04:04:06 34° 344° (NNW) 04:07:26 2401.200-2431.200
Gurwin Techsat 1B 21 Dec 04:20:47 04:22:10 11° 297° (WNW) 04:23:33 435.225
GONETS M04 21 Dec 04:46:13 04:54:23 44° 88° (E) 05:02:33
AO-7 21 Dec 04:46:35 04:54:54 71° 290° (WNW) 05:03:10 29.400- 29.500
AIST 1 21 Dec 04:56:07 04:56:58 11° 274° (W) 04:57:48
CUBESAT XI-V 21 Dec 05:03:16 05:06:12 17° 68° (ENE) 05:09:07 437.345
MOZHAYETS 4 21 Dec 05:15:20 05:18:50 21° 265° (W) 05:22:22
JAS-2 21 Dec 05:19:25 05:24:54 77° 285° (WNW) 05:30:03 435.910
STRAND 1 21 Dec 05:23:57 05:28:10 27° 69° (ENE) 05:32:23 437.568
VERMONT LUNAR 21 Dec 05:24:24 05:27:12 22° 3° (N) 05:29:59 437.305
Cubesat XI-IV 21 Dec 05:39:44 05:44:25 31° 98° (E) 05:49:06 437.490
PHONESAT 2.4 21 Dec 05:40:30 05:43:24 22° 1° (N) 05:46:19 2401.200-2431.200
PRISM 21 Dec 05:47:20 05:51:30 61° 259° (WSW) 05:55:42 437.425
SO-50 21 Dec 06:06:10 06:11:05 81° 62° (ENE) 06:15:59 436.795
CUTE-I 21 Dec 06:12:22 06:17:40 68° 102° (ESE) 06:22:57 437.470
CUBESAT XI-V 21 Dec 06:38:55 06:43:17 39° 262° (W) 06:47:39 437.345
AO-7 21 Dec 06:43:10 06:46:10 12° 307° (NW) 06:49:11 29.400- 29.500
GONETS M04 21 Dec 06:43:24 06:51:11 34° 285° (WNW) 06:59:01
VERMONT LUNAR 21 Dec 07:02:41 07:06:03 41° 19° (NNE) 07:09:24 437.305
STRAND 1 21 Dec 07:02:51 07:07:12 28° 263° (W) 07:11:35 437.568
PHONESAT 2.4 21 Dec 07:19:16 07:22:40 38° 18° (NNE) 07:26:05 2401.200-2431.200
Cubesat XI-IV 21 Dec 07:20:00 07:24:19 26° 291° (WNW) 07:28:39 437.490
BRITE-PL 21 Dec 07:40:12 07:42:33 13° 94° (E) 07:44:57 437.365/2234.400
HO-68 21 Dec 07:40:45 07:45:26 18° 94° (E) 07:50:05 435.675
MaSat-1 21 Dec 07:49:14 07:51:17 25° 109° (ESE) 07:53:15 437.345
CUTE-I 21 Dec 07:54:55 07:57:06 13° 296° (WNW) 07:59:16 437.470
GOMX 1 21 Dec 08:02:58 08:06:11 17° 95° (E) 08:09:29 467.674
AAUSAT CUBESAT 2 21 Dec 08:12:23 08:14:29 13° 93° (E) 08:16:34 437.432
DOVE 4 21 Dec 08:24:59 08:28:44 22° 96° (E) 08:32:37 437.250
CANX-2 21 Dec 08:26:37 08:30:40 38° 98° (E) 08:34:40 2200.000
CUSAT 1 21 Dec 08:31:58 08:34:13 16° 84° (E) 08:36:49 437.405
VERMONT LUNAR 21 Dec 08:41:04 08:44:21 36° 214° (SSW) 08:47:36 437.305
CINEMA 3 21 Dec 08:45:44 08:49:21 21° 95° (E) 08:53:01 145.822/145.860
COMPASS 1 21 Dec 08:46:31 08:50:34 42° 99° (E) 08:54:34 437.405
SEEDS 21 Dec 08:52:50 08:57:05 63° 101° (E) 09:01:18 437.485
CUTE 1.7 + AOD 2 21 Dec 08:57:07 09:01:27 86° 102° (ESE) 09:05:44 437.475
PHONESAT 2.4 21 Dec 08:57:56 09:01:24 44° 213° (SSW) 09:04:52 2401.200-2431.200
DELFI C3 21 Dec 08:59:48 09:02:47 19° 95° (E) 09:05:44 145.870
FUNcube-1 21 Dec 09:01:09 09:02:23 11° 92° (E) 09:03:36 145.935
UWE-3 21 Dec 09:02:20 09:04:58 15° 94° (E) 09:07:36 435.000/436.395/437.385
POPSAT HIP 1 21 Dec 09:06:25 09:07:17 11° 66° (ENE) 09:08:08 437.405
RS-15 21 Dec 09:09:37 09:11:30 11° 98° (E) 09:13:23 29.354- 29.394
YUBILEINY 21 Dec 09:10:32 09:13:35 12° 66° (ENE) 09:16:38 435.215
TIGRISAT 21 Dec 09:10:43 09:13:56 21° 69° (ENE) 09:17:13 435.000
DX 1 21 Dec 09:15:00 09:18:41 27° 98° (E) 09:22:21 434.975-435.025
BRITE-PL 21 Dec 09:16:27 09:21:08 54° 285° (WNW) 09:26:12 437.365/2234.400
DANDE 21 Dec 09:25:41 09:28:52 70° 95° (E) 09:33:04 436.750
HO-68 21 Dec 09:26:28 09:33:32 66° 288° (WNW) 09:40:33 435.675
BUGSAT 1 21 Dec 09:28:00 09:30:24 15° 69° (ENE) 09:32:48 437.445
HUMSAT D 21 Dec 09:29:19 09:31:18 13° 93° (E) 09:33:17 437.325/437.525
DUCHIFAT 1 21 Dec 09:31:27 09:34:41 22° 71° (ENE) 09:37:56 145.980
Oscar 11 21 Dec 09:35:47 09:40:09 70° 101° (ESE) 09:44:28 145.826/435.025
UNISAT 6 21 Dec 09:39:10 09:43:19 46° 74° (ENE) 09:47:34 437.425
GOMX 1 21 Dec 09:39:44 09:44:19 43° 286° (WNW) 09:49:12 467.674
UKube-1 21 Dec 09:44:49 09:49:06 61° 101° (ESE) 09:53:22 .
QB50P2 21 Dec 09:44:56 09:48:42 33° 73° (ENE) 09:52:29 145.880/145.840
AAUSAT CUBESAT 2 21 Dec 09:46:20 09:50:14 37° 286° (WNW) 09:54:07 437.432
POLYITAN 1 21 Dec 09:53:48 09:57:46 42° 74° (ENE) 10:01:46 437.675
NANOSAT C BR1 21 Dec 09:55:21 09:59:20 44° 74° (ENE) 10:03:20 145.865
CUBEBUG 2 21 Dec 10:00:19 10:05:01 86° 102° (ESE) 10:09:47 437.445
DOVE 4 21 Dec 10:02:05 10:06:26 34° 287° (WNW) 10:11:00 437.250
CANX-2 21 Dec 10:03:53 10:06:13 14° 292° (WNW) 10:08:32 2200.000
ZACube-1 21 Dec 10:07:52 10:12:26 74° 101° (ESE) 10:17:02 437.345
QB50P1 21 Dec 10:09:41 10:13:51 68° 76° (ENE) 10:18:03 145.935-145.965
ANTELSAT 21 Dec 10:10:59 10:15:17 71° 259° (WSW) 10:19:44 437.575/2403.000
VELOX 1 21 Dec 10:12:30 10:16:39 39° 99° (E) 10:20:48 145.980
CUSAT 1 21 Dec 10:14:19 10:17:00 20° 291° (WNW) 10:20:15 437.405
JUGNU 21 Dec 10:14:30 10:17:25 14° 164° (SSE) 10:20:21 437.505
ESTCUBE 1 21 Dec 10:18:41 10:21:38 17° 95° (E) 10:24:35 437.505/2401.250
CINEMA 3 21 Dec 10:22:12 10:26:30 34° 287° (WNW) 10:30:56 145.822/145.860
COMPASS 1 21 Dec 10:23:59 10:25:51 13° 292° (WNW) 10:27:43 437.405
FUNcube-1 21 Dec 10:34:29 10:38:56 54° 285° (WNW) 10:43:24 145.935
DELFI C3 21 Dec 10:34:36 10:37:58 25° 288° (WNW) 10:41:18 145.870
50 SAT 21 Dec 10:34:58 10:39:07 68° 101° (E) 10:43:15 437.505
UWE-3 21 Dec 10:37:14 10:41:36 42° 286° (WNW) 10:46:00 435.000/436.395/437.385
O/OREOS (USA 219) 21 Dec 10:37:47 10:42:20 85° 71° (ENE) 10:46:52 437.305
POPSAT HIP 1 21 Dec 10:38:36 10:42:41 50° 260° (W) 10:46:47 437.405
TIGRISAT 21 Dec 10:46:50 10:50:29 27° 264° (W) 10:54:13 435.000
DX 1 21 Dec 10:51:31 10:54:43 21° 291° (WNW) 10:57:56 434.975-435.025
AISAT 21 Dec 10:55:58 11:00:20 58° 285° (WNW) 11:04:41 437.250
CUBEBUG 1 21 Dec 10:59:12 11:03:25 49° 100° (E) 11:07:37 437.445
BUGSAT 1 21 Dec 11:01:56 11:05:37 31° 262° (W) 11:09:16 437.445
YUBILEINY 21 Dec 11:02:57 11:11:40 81° 84° (E) 11:20:23 435.215
HUMSAT D 21 Dec 11:03:08 11:07:14 42° 286° (WNW) 11:11:19 437.325/437.525
DUCHIFAT 1 21 Dec 11:07:05 11:10:24 23° 264° (W) 11:13:45 145.980
RS-15 21 Dec 11:10:58 11:21:52 72° 114° (ESE) 11:32:43 29.354- 29.394
UNISAT 6 21 Dec 11:18:50 11:20:20 12° 268° (W) 11:21:51 437.425
SRMSAT 21 Dec 11:20:26 11:22:20 12° 163° (SSE) 11:24:13 437.500
QB50P2 21 Dec 11:22:12 11:24:39 15° 266° (W) 11:27:08 145.880/145.840
POLYITAN 1 21 Dec 11:32:25 11:33:52 12° 267° (W) 11:35:19 437.675
NANOSAT C BR1 21 Dec 11:34:07 11:35:23 11° 267° (W) 11:36:39 145.865
VELOX 1 21 Dec 11:50:23 11:52:51 15° 292° (WNW) 11:55:20 145.980
ESTCUBE 1 21 Dec 11:54:31 11:58:32 33° 288° (WNW) 12:02:32 437.505/2401.250
TISAT 1 21 Dec 11:58:02 12:02:11 55° 101° (E) 12:06:20 437.305
Oscar 19 21 Dec 11:58:12 12:02:15 24° 69° (ENE) 12:06:20 437.125/150
BEESAT 2 21 Dec 11:58:40 12:01:56 23° 111° (ESE) 12:05:15 435.950
PCSat 21 Dec 11:58:57 12:01:59 15° 104° (ESE) 12:05:01 145.827
ISS 21 Dec 11:59:21 12:02:18 31° 130° (SE) 12:05:16 145.825
JUGNU 21 Dec 12:01:18 12:05:49 22° 174° (S) 12:10:20 437.505
SPROUT 21 Dec 12:03:57 12:08:12 61° 101° (E) 12:12:28 437.525
ITAMSAT 1 21 Dec 12:17:49 12:20:06 13° 64° (ENE) 12:22:23 435.822/435.867
CUBEBUG 1 21 Dec 12:37:53 12:39:18 11° 293° (WNW) 12:40:43 437.445
BEESAT 3 21 Dec 12:55:10 12:59:11 60° 300° (WNW) 13:03:17 437.485
YUBILEINY 21 Dec 13:02:34 13:07:19 16° 280° (W) 13:12:06 435.215
SRMSAT 21 Dec 13:06:33 13:10:52 21° 172° (S) 13:15:09 437.500
AIST 2 21 Dec 13:06:48 13:10:58 67° 116° (ESE) 13:15:13 435.215
SWISSCUBE 21 Dec 13:07:08 13:11:43 47° 100° (E) 13:16:16 437.505
ITUPSAT 1 21 Dec 13:08:00 13:12:32 42° 99° (E) 13:17:02 437.325
RS-15 21 Dec 13:26:00 13:35:06 30° 315° (NW) 13:44:19 29.354- 29.394
BEESAT 21 Dec 13:31:49 13:36:36 83° 103° (ESE) 13:41:20 436.000
ISS 21 Dec 13:36:23 13:38:54 20° 324° (NW) 13:41:26 145.825
BEESAT 2 21 Dec 13:36:43 13:40:03 24° 305° (NW) 13:43:27 435.950
Oscar 19 21 Dec 13:36:50 13:41:22 32° 262° (W) 13:45:57 437.125/150
PCSat 21 Dec 13:39:34 13:44:51 55° 298° (WNW) 13:50:10 145.827
JUGNU 21 Dec 13:49:40 13:54:17 23° 184° (S) 13:58:53 437.505
AO-7 21 Dec 13:50:50 13:56:26 20° 58° (ENE) 14:02:02 29.400- 29.500
ITAMSAT 1 21 Dec 13:53:53 13:59:00 63° 258° (WSW) 14:04:08 435.822/435.867
Gurwin Techsat 1B 21 Dec 13:54:02 13:59:19 76° 76° (ENE) 14:04:38 435.225
AUBIESAT-1 21 Dec 13:55:56 13:59:55 44° 103° (ESE) 14:03:33 437.475
STARS 21 Dec 14:15:42 14:19:35 29° 98° (E) 14:23:26 437.465
KKS-1 21 Dec 14:20:59 14:25:22 53° 100° (E) 14:29:44 437.445
M-CUBED/EXP-1 PRIME 21 Dec 14:22:07 14:26:21 71° 288° (WNW) 14:30:10 437.505
HORYU 2 21 Dec 14:45:50 14:50:17 79° 257° (WSW) 14:54:47 437.375
SWISSCUBE 21 Dec 14:46:33 14:49:08 15° 294° (WNW) 14:51:42 437.505
ITUPSAT 1 21 Dec 14:47:10 14:50:01 16° 293° (WNW) 14:52:52 437.325
AIST 2 21 Dec 14:48:58 14:50:01 11° 312° (NW) 14:51:04 435.215
SRMSAT 21 Dec 14:54:49 14:59:27 24° 182° (S) 15:04:05 437.500
GONETS M04 21 Dec 15:04:13 15:09:05 16° 68° (ENE) 15:13:53
JAS-2 21 Dec 15:25:04 15:31:37 32° 69° (ENE) 15:37:43 435.910
AUBIESAT-1 21 Dec 15:32:48 15:34:20 12° 300° (WNW) 15:35:50 437.475
JUGNU 21 Dec 15:39:13 15:42:41 16° 194° (SSW) 15:46:10 437.505
AO-7 21 Dec 15:39:57 15:48:16 78° 254° (WSW) 15:56:39 29.400- 29.500
AIST 1 21 Dec 15:40:39 15:44:34 33° 91° (E) 15:48:30
STARS 21 Dec 15:52:36 15:55:49 20° 291° (WNW) 15:59:02 437.465
KKS-1 21 Dec 16:00:02 16:01:30 11° 294° (WNW) 16:02:57 437.445
SRMSAT 21 Dec 16:44:09 16:48:02 18° 192° (SSW) 16:51:54 437.500
Cubesat XI-IV 21 Dec 16:57:24 17:02:08 34° 70° (ENE) 17:06:52 437.490
GONETS M04 21 Dec 16:58:07 17:06:54 85° 266° (W) 17:15:34
JAS-2 21 Dec 17:09:03 17:16:21 45° 261° (W) 17:23:11 435.910
MOZHAYETS 4 21 Dec 17:14:02 17:18:35 61° 285° (WNW) 17:23:06
AIST 1 21 Dec 17:19:41 17:22:17 15° 285° (WNW) 17:24:52
CUTE-I 21 Dec 17:29:42 17:34:59 71° 75° (ENE) 17:40:17 437.470
PRISM 21 Dec 17:35:36 17:39:04 26° 97° (E) 17:42:30 437.425
AO-7 21 Dec 17:40:16 17:42:01 11° 269° (W) 17:43:45 29.400- 29.500
STRAND 1 21 Dec 17:40:41 17:42:47 12° 93° (E) 17:44:53 437.568
RS-15 21 Dec 18:07:19 18:13:08 15° 29° (NNE) 18:19:01 29.354- 29.394
Cubesat XI-IV 21 Dec 18:37:57 18:42:11 24° 264° (W) 18:46:26 437.490
CUBESAT XI-V 21 Dec 18:40:03 18:44:39 74° 101° (ESE) 18:49:14 437.345
MaSat-1 21 Dec 18:56:43 18:58:16 15° 252° (WSW) 18:59:51 437.345
GONETS M04 21 Dec 18:59:14 19:02:17 12° 282° (WNW) 19:05:20
PRISM 21 Dec 19:11:27 19:14:23 19° 291° (WNW) 19:17:19 437.425
CUSAT 1 21 Dec 19:12:54 19:19:29 27° 73° (ENE) 19:26:19 437.405
CUTE-I 21 Dec 19:14:23 19:15:27 11° 268° (W) 19:16:30 437.470
CANX-2 21 Dec 19:16:36 19:19:16 16° 69° (ENE) 19:21:57 2200.000
STRAND 1 21 Dec 19:17:16 19:22:15 57° 286° (WNW) 19:27:14 437.568
